| time (UTC) | temp F | wind direction | speed MPH | gust MPH | rain 1hr in | rain 24hr in | rain mn in | humidity % | barometer mb |
| 20260510204504 | 61 | 21 | 1.0 | 2.0 | 0.09 | 0.38 | 0.09 | 78 | 1009.0 |
| 20260510203604 | 64 | 21 | 0.0 | 2.0 | 0.00 | 0.30 | 0.00 | 79 | 1009.0 |
| 20260510202704 | 65 | 21 | 1.0 | 2.0 | 0.00 | 0.31 | 0.00 | 79 | 1008.3 |
| 20260510201804 | 66 | 22 | 1.0 | 4.0 | 0.00 | 0.32 | 0.00 | 80 | 1008.7 |
| 20260510200904 | 67 | 23 | 1.0 | 3.0 | 0.00 | 0.33 | 0.00 | 81 | 1008.7 |
| 20260510200004 | 67 | 268 | 1.0 | 4.0 | 0.00 | 0.34 | 0.00 | 80 | 1009.4 |
| 20260510195404 | 68 | 232 | 1.0 | 2.0 | 0.00 | 0.36 | 0.00 | 80 | 1008.3 |
| 20260510194504 | 68 | 216 | 0.0 | 2.0 | 0.00 | 0.40 | 0.00 | 81 | 1008.3 |
| 20260510193604 | 69 | 218 | 1.0 | 6.0 | 0.00 | 0.44 | 0.00 | 82 | 1008.7 |
| 20260510192704 | 68 | 238 | 0.0 | 2.0 | 0.00 | 0.47 | 0.00 | 82 | 1008.7 |
| 20260510191804 | 68 | 230 | 0.0 | 2.0 | 0.00 | 0.48 | 0.00 | 82 | 1008.7 |
| 20260510190904 | 68 | 198 | 0.0 | 2.0 | 0.00 | 0.49 | 0.00 | 82 | 1008.7 |
| 20260510190004 | 68 | 198 | 0.0 | 1.0 | 0.00 | 0.52 | 0.00 | 83 | 1008.7 |
| 20260510185404 | 69 | 192 | 0.0 | 2.0 | 0.00 | 0.55 | 0.00 | 83 | 1008.7 |
| 20260510184504 | 70 | 190 | 1.0 | 3.0 | 0.00 | 0.60 | 0.00 | 84 | 1008.7 |
| 20260510183604 | 70 | 234 | 1.0 | 3.0 | 0.00 | 0.66 | 0.00 | 85 | 1008.7 |
| 20260510182704 | 69 | 311 | 0.0 | 2.0 | 0.00 | 0.66 | 0.00 | 85 | 1008.7 |
| 20260510181804 | 69 | 258 | 0.0 | 2.0 | 0.00 | 0.66 | 0.00 | 85 | 1009.0 |
| 20260510180904 | 70 | 197 | 1.0 | 3.0 | 0.00 | 0.66 | 0.00 | 86 | 1008.7 |
| 20260510180004 | 69 | 197 | 1.0 | 3.0 | 0.00 | 0.66 | 0.00 | 87 | 1008.7 |
| 20260510175404 | 68 | 174 | 2.0 | 4.0 | 0.00 | 0.66 | 0.00 | 86 | 1008.7 |
| 20260510174504 | 70 | 179 | 2.0 | 4.0 | 0.00 | 0.66 | 0.00 | 88 | 1009.0 |
| 20260510173604 | 69 | 181 | 2.0 | 4.0 | 0.00 | 0.66 | 0.00 | 88 | 1009.0 |
| 20260510172704 | 69 | 165 | 2.0 | 4.0 | 0.00 | 0.66 | 0.00 | 89 | 1008.7 |
| 20260510171804 | 69 | 172 | 2.0 | 3.0 | 0.00 | 0.66 | 0.00 | 89 | 1008.3 |
| 20260510170904 | 70 | 161 | 2.0 | 4.0 | 0.00 | 0.66 | 0.00 | 90 | 1008.7 |
| 20260510170004 | 69 | 149 | 2.0 | 6.0 | 0.00 | 0.66 | 0.00 | 91 | 1008.7 |
| 20260510165404 | 69 | 165 | 2.0 | 6.0 | 0.00 | 0.66 | 0.00 | 92 | 1008.7 |
| 20260510164506 | 69 | 197 | 2.0 | 4.0 | 0.00 | 0.66 | 0.00 | 92 | 1009.0 |
| 20260510163604 | 68 | 162 | 1.0 | 3.0 | 0.00 | 0.66 | 0.00 | 93 | 1009.4 |
| 20260510162704 | 68 | 132 | 2.0 | 4.0 | 0.00 | 0.66 | 0.00 | 93 | 1009.4 |
| 20260510161804 | 67 | 131 | 2.0 | 6.0 | 0.00 | 0.66 | 0.00 | 94 | 1009.4 |
| 20260510160904 | 67 | 147 | 2.0 | 4.0 | 0.00 | 0.66 | 0.00 | 94 | 1009.4 |
| 20260510160004 | 66 | 131 | 2.0 | 4.0 | 0.00 | 0.66 | 0.00 | 95 | 1009.4 |
| 20260510155404 | 64 | 186 | 1.0 | 4.0 | 0.00 | 0.66 | 0.00 | 94 | 1009.4 |
| 20260510154504 | 64 | 156 | 2.0 | 4.0 | 0.00 | 0.66 | 0.00 | 95 | 1009.4 |
| 20260510153604 | 63 | 140 | 2.0 | 4.0 | 0.00 | 0.66 | 0.00 | 95 | 1009.4 |
| 20260510152704 | 63 | 130 | 2.0 | 4.0 | 0.00 | 0.66 | 0.00 | 95 | 1009.4 |
| 20260510151804 | 63 | 132 | 2.0 | 6.0 | 0.00 | 0.66 | 0.00 | 95 | 1009.4 |
| 20260510150904 | 63 | 140 | 2.0 | 6.0 | 0.00 | 0.66 | 0.00 | 95 | 1009.7 |
| 20260510150004 | 64 | 179 | 2.0 | 4.0 | 0.00 | 0.66 | 0.00 | 96 | 1009.7 |
| 20260510145404 | 62 | 161 | 2.0 | 3.0 | 0.00 | 0.66 | 0.00 | 96 | 1009.4 |
| 20260510144504 | 62 | 156 | 2.0 | 3.0 | 0.00 | 0.66 | 0.00 | 96 | 1009.4 |
| 20260510143604 | 61 | 178 | 1.0 | 3.0 | 0.00 | 0.66 | 0.00 | 96 | 1009.4 |
| 20260510142704 | 59 | 176 | 2.0 | 3.0 | 0.00 | 0.66 | 0.00 | 96 | 1009.4 |
| 20260510141804 | 58 | 186 | 1.0 | 3.0 | 0.00 | 0.66 | 0.00 | 96 | 1009.4 |
| 20260510140904 | 58 | 185 | 0.0 | 3.0 | 0.00 | 0.66 | 0.00 | 96 | 1009.4 |
| 20260510140004 | 57 | 185 | 1.0 | 2.0 | 0.00 | 0.66 | 0.00 | 97 | 1009.4 |
| 20260510135404 | 55 | 185 | 0.0 | 2.0 | 0.00 | 0.66 | 0.00 | 96 | 1009.7 |
| 20260510134504 | 54 | 185 | 0.0 | 1.0 | 0.00 | 0.66 | 0.00 | 96 | 1009.4 |
| 20260510133604 | 53 | 0 | 0.0 | 0.0 | 0.00 | 0.66 | 0.00 | 96 | 1009.4 |
| 20260510132704 | 53 | 185 | 0.0 | 1.0 | 0.00 | 0.66 | 0.00 | 96 | 1009.4 |
| 20260510131804 | 53 | 185 | 0.0 | 1.0 | 0.00 | 0.66 | 0.00 | 96 | 1009.4 |
| 20260510130904 | 52 | 185 | 0.0 | 1.0 | 0.00 | 0.66 | 0.00 | 96 | 1009.4 |
| 20260510130004 | 52 | 0 | 0.0 | 0.0 | 0.00 | 0.66 | 0.00 | 96 | 1009.4 |
| 20260510125404 | 52 | 0 | 0.0 | 0.0 | 0.00 | 0.66 | 0.00 | 96 | 1009.4 |
| 20260510124504 | 52 | 0 | 0.0 | 0.0 | 0.00 | 0.66 | 0.00 | 96 | 1009.4 |
| 20260510123604 | 52 | 0 | 0.0 | 0.0 | 0.00 | 0.66 | 0.00 | 96 | 1009.4 |
| 20260510122704 | 52 | 0 | 0.0 | 0.0 | 0.00 | 0.66 | 0.00 | 96 | 1009.0 |
| 20260510121804 | 52 | 0 | 0.0 | 0.0 | 0.00 | 0.66 | 0.00 | 96 | 1009.0 |
| 20260510120904 | 52 | 0 | 0.0 | 0.0 | 0.00 | 0.66 | 0.00 | 96 | 1009.0 |
| 20260510120004 | 51 | 0 | 0.0 | 0.0 | 0.00 | 0.66 | 0.00 | 96 | 1008.7 |
| 20260510115404 | 51 | 0 | 0.0 | 0.0 | 0.00 | 0.66 | 0.00 | 96 | 1008.7 |
| 20260510114504 | 51 | 0 | 0.0 | 0.0 | 0.00 | 0.66 | 0.00 | 96 | 1008.7 |
| 20260510113604 | 51 | 0 | 0.0 | 0.0 | 0.00 | 0.66 | 0.00 | 96 | 1008.7 |
| 20260510112704 | 50 | 185 | 0.0 | 1.0 | 0.00 | 0.66 | 0.00 | 96 | 1008.3 |
| 20260510111804 | 50 | 0 | 0.0 | 0.0 | 0.00 | 0.66 | 0.00 | 96 | 1008.3 |
| 20260510110904 | 50 | 0 | 0.0 | 0.0 | 0.00 | 0.66 | 0.00 | 96 | 1008.3 |
| 20260510110004 | 50 | 0 | 0.0 | 0.0 | 0.00 | 0.66 | 0.00 | 96 | 1008.7 |
| 20260510105404 | 50 | 0 | 0.0 | 0.0 | 0.00 | 0.66 | 0.00 | 95 | 1008.3 |
| 20260510104504 | 50 | 0 | 0.0 | 0.0 | 0.00 | 0.66 | 0.00 | 95 | 1008.3 |
| 20260510103604 | 50 | 0 | 0.0 | 0.0 | 0.00 | 0.66 | 0.00 | 95 | 1008.3 |
| 20260510102704 | 50 | 0 | 0.0 | 0.0 | 0.00 | 0.66 | 0.00 | 95 | 1008.3 |
| 20260510101804 | 50 | 0 | 0.0 | 0.0 | 0.00 | 0.66 | 0.00 | 95 | 1008.3 |
| 20260510100904 | 50 | 0 | 0.0 | 0.0 | 0.00 | 0.66 | 0.00 | 95 | 1008.0 |
| 20260510100004 | 50 | 185 | 0.0 | 1.0 | 0.00 | 0.66 | 0.00 | 95 | 1008.0 |
| 20260510095404 | 50 | 185 | 0.0 | 2.0 | 0.00 | 0.66 | 0.00 | 95 | 1008.0 |
| 20260510094504 | 50 | 185 | 0.0 | 1.0 | 0.00 | 0.66 | 0.00 | 95 | 1008.0 |
| 20260510093604 | 50 | 0 | 0.0 | 0.0 | 0.00 | 0.66 | 0.00 | 95 | 1008.3 |
| 20260510092704 | 50 | 0 | 0.0 | 0.0 | 0.00 | 0.66 | 0.00 | 95 | 1008.3 |
| 20260510091804 | 50 | 185 | 0.0 | 1.0 | 0.00 | 0.66 | 0.00 | 95 | 1008.0 |
| 20260510090904 | 50 | 185 | 0.0 | 1.0 | 0.00 | 0.66 | 0.00 | 95 | 1008.0 |
| 20260510090004 | 50 | 0 | 0.0 | 0.0 | 0.00 | 0.66 | 0.00 | 95 | 1008.3 |
| 20260510085404 | 50 | 0 | 0.0 | 0.0 | 0.00 | 0.66 | 0.00 | 95 | 1008.0 |
| 20260510084504 | 50 | 0 | 0.0 | 0.0 | 0.00 | 0.66 | 0.00 | 95 | 1008.3 |
| 20260510083604 | 50 | 0 | 0.0 | 0.0 | 0.00 | 0.67 | 0.00 | 95 | 1008.3 |
| 20260510082704 | 50 | 0 | 0.0 | 0.0 | 0.00 | 0.67 | 0.00 | 95 | 1008.3 |
| 20260510081804 | 50 | 0 | 0.0 | 0.0 | 0.00 | 0.67 | 0.00 | 95 | 1008.3 |
| 20260510080904 | 50 | 0 | 0.0 | 0.0 | 0.00 | 0.68 | 0.00 | 95 | 1008.3 |
| 20260510080004 | 50 | 0 | 0.0 | 0.0 | 0.00 | 0.69 | 0.00 | 95 | 1008.0 |
| 20260510075404 | 50 | 0 | 0.0 | 0.0 | 0.00 | 0.69 | 0.00 | 95 | 1008.3 |
| 20260510074504 | 50 | 0 | 0.0 | 0.0 | 0.00 | 0.69 | 0.00 | 95 | 1008.0 |
| 20260510073604 | 50 | 0 | 0.0 | 0.0 | 0.00 | 0.69 | 0.00 | 95 | 1008.0 |
| 20260510072704 | 50 | 0 | 0.0 | 0.0 | 0.00 | 0.69 | 0.00 | 95 | 1008.0 |
| 20260510071804 | 50 | 185 | 0.0 | 1.0 | 0.00 | 0.69 | 0.00 | 95 | 1007.6 |
| 20260510070904 | 50 | 0 | 0.0 | 0.0 | 0.00 | 0.69 | 0.00 | 94 | 1007.6 |
| 20260510070004 | 50 | 0 | 0.0 | 0.0 | 0.00 | 0.69 | 0.00 | 94 | 1008.0 |
| 20260510065404 | 51 | 0 | 0.0 | 0.0 | 0.00 | 0.69 | 0.00 | 94 | 1007.6 |
| 20260510064504 | 51 | 0 | 0.0 | 0.0 | 0.00 | 0.69 | 0.00 | 94 | 1008.0 |
| 20260510063604 | 51 | 0 | 0.0 | 0.0 | 0.00 | 0.69 | 0.00 | 94 | 1008.3 |
| 20260510062704 | 51 | 184 | 0.0 | 1.0 | 0.00 | 0.69 | 0.00 | 94 | 1008.0 |
| 20260510061804 | 51 | 0 | 0.0 | 0.0 | 0.00 | 0.69 | 0.00 | 94 | 1007.6 |
| 20260510060904 | 51 | 0 | 0.0 | 0.0 | 0.00 | 0.69 | 0.00 | 94 | 1007.6 |
| 20260510060004 | 51 | 0 | 0.0 | 0.0 | 0.00 | 0.69 | 0.00 | 94 | 1007.6 |
| 20260510055404 | 51 | 0 | 0.0 | 0.0 | 0.00 | 0.69 | 0.00 | 94 | 1007.6 |
| 20260510054504 | 51 | 0 | 0.0 | 0.0 | 0.00 | 0.69 | 0.00 | 94 | 1007.6 |
| 20260510053604 | 51 | 0 | 0.0 | 0.0 | 0.00 | 0.69 | 0.00 | 94 | 1007.6 |
| 20260510052704 | 51 | 0 | 0.0 | 0.0 | 0.00 | 0.69 | 0.00 | 94 | 1007.6 |
| 20260510051804 | 51 | 0 | 0.0 | 0.0 | 0.00 | 0.69 | 0.00 | 94 | 1008.0 |
| 20260510050904 | 51 | 0 | 0.0 | 0.0 | 0.00 | 0.69 | 0.00 | 94 | 1008.0 |
| 20260510050004 | 51 | 0 | 0.0 | 0.0 | 0.00 | 0.69 | 0.00 | 94 | 1008.0 |
| 20260510045404 | 51 | 0 | 0.0 | 0.0 | 0.00 | 0.69 | 0.00 | 94 | 1007.6 |
| 20260510044504 | 51 | 0 | 0.0 | 0.0 | 0.00 | 0.69 | 0.00 | 94 | 1007.6 |
| 20260510043603 | 51 | 0 | 0.0 | 0.0 | 0.00 | 0.69 | 0.00 | 94 | 1007.6 |
| 20260510042704 | 51 | 0 | 0.0 | 0.0 | 0.00 | 0.69 | 0.00 | 94 | 1007.6 |
| 20260510041804 | 51 | 0 | 0.0 | 0.0 | 0.00 | 0.69 | 0.00 | 94 | 1007.6 |
| 20260510040904 | 51 | 0 | 0.0 | 0.0 | 0.00 | 0.69 | 0.00 | 94 | 1007.6 |
| 20260510040004 | 51 | 0 | 0.0 | 0.0 | 0.00 | 0.69 | 0.00 | 94 | 1007.6 |
| 20260510035404 | 51 | 0 | 0.0 | 0.0 | 0.00 | 0.69 | 0.69 | 93 | 1007.6 |
| 20260510034504 | 51 | 0 | 0.0 | 0.0 | 0.00 | 0.69 | 0.69 | 93 | 1007.3 |
| 20260510033604 | 51 | 0 | 0.0 | 0.0 | 0.00 | 0.69 | 0.69 | 93 | 1007.6 |
| 20260510032704 | 52 | 0 | 0.0 | 0.0 | 0.00 | 0.69 | 0.69 | 93 | 1007.6 |
| 20260510031804 | 52 | 0 | 0.0 | 0.0 | 0.00 | 0.69 | 0.69 | 93 | 1007.6 |
| 20260510030904 | 52 | 0 | 0.0 | 0.0 | 0.00 | 0.69 | 0.69 | 93 | 1007.6 |
| 20260510030004 | 51 | 0 | 0.0 | 0.0 | 0.00 | 0.69 | 0.69 | 93 | 1008.0 |
| 20260510025404 | 51 | 0 | 0.0 | 0.0 | 0.00 | 0.69 | 0.69 | 93 | 1007.6 |
| 20260510024504 | 51 | 182 | 0.0 | 1.0 | 0.00 | 0.69 | 0.69 | 93 | 1007.6 |
| 20260510023603 | 52 | 182 | 0.0 | 1.0 | 0.00 | 0.69 | 0.69 | 93 | 1007.6 |
| 20260510022704 | 52 | 0 | 0.0 | 0.0 | 0.00 | 0.69 | 0.69 | 93 | 1007.6 |
| 20260510021804 | 52 | 0 | 0.0 | 0.0 | 0.00 | 0.69 | 0.69 | 93 | 1007.6 |
| 20260510020904 | 52 | 0 | 0.0 | 0.0 | 0.00 | 0.69 | 0.69 | 93 | 1007.6 |
| 20260510020004 | 52 | 0 | 0.0 | 0.0 | 0.00 | 0.69 | 0.69 | 93 | 1007.6 |
| 20260510015403 | 52 | 0 | 0.0 | 0.0 | 0.00 | 0.69 | 0.69 | 92 | 1007.6 |
| 20260510014504 | 52 | 0 | 0.0 | 0.0 | 0.00 | 0.69 | 0.69 | 92 | 1007.6 |
| 20260510013604 | 52 | 0 | 0.0 | 0.0 | 0.00 | 0.69 | 0.69 | 92 | 1007.6 |
| 20260510012704 | 52 | 0 | 0.0 | 0.0 | 0.00 | 0.69 | 0.69 | 92 | 1008.0 |
| 20260510011803 | 52 | 0 | 0.0 | 0.0 | 0.00 | 0.69 | 0.69 | 92 | 1007.6 |
| 20260510010904 | 52 | 0 | 0.0 | 0.0 | 0.00 | 0.69 | 0.69 | 92 | 1007.6 |
| 20260510010004 | 52 | 0 | 0.0 | 0.0 | 0.00 | 0.69 | 0.69 | 92 | 1007.3 |
| 20260510005404 | 52 | 0 | 0.0 | 0.0 | 0.00 | 0.69 | 0.69 | 92 | 1007.0 |
| 20260510004503 | 52 | 0 | 0.0 | 0.0 | 0.00 | 0.69 | 0.69 | 92 | 1007.0 |
| 20260510003603 | 52 | 0 | 0.0 | 0.0 | 0.00 | 0.69 | 0.69 | 92 | 1007.3 |
| 20260510002703 | 52 | 0 | 0.0 | 0.0 | 0.00 | 0.69 | 0.69 | 92 | 1006.6 |
| 20260510001804 | 52 | 0 | 0.0 | 0.0 | 0.00 | 0.69 | 0.69 | 92 | 1007.0 |
| 20260510000903 | 52 | 0 | 0.0 | 0.0 | 0.00 | 0.69 | 0.69 | 92 | 1007.0 |
| 20260510000004 | 53 | 0 | 0.0 | 0.0 | 0.00 | 0.69 | 0.69 | 92 | 1007.0 |
| 20260509235404 | 53 | 0 | 0.0 | 0.0 | 0.00 | 0.69 | 0.69 | 92 | 1006.6 |
| 20260509234503 | 53 | 0 | 0.0 | 0.0 | 0.01 | 0.69 | 0.69 | 91 | 1007.0 |
| 20260509233603 | 53 | 0 | 0.0 | 0.0 | 0.02 | 0.69 | 0.69 | 91 | 1007.0 |
| 20260509232703 | 53 | 0 | 0.0 | 0.0 | 0.04 | 0.69 | 0.69 | 91 | 1007.0 |
| 20260509231803 | 53 | 0 | 0.0 | 0.0 | 0.07 | 0.69 | 0.69 | 91 | 1007.0 |
| 20260509230903 | 53 | 0 | 0.0 | 0.0 | 0.09 | 0.69 | 0.69 | 91 | 1007.0 |
| 20260509230004 | 53 | 0 | 0.0 | 0.0 | 0.12 | 0.69 | 0.69 | 91 | 1007.3 |
| 20260509225404 | 53 | 0 | 0.0 | 0.0 | 0.14 | 0.69 | 0.69 | 91 | 1007.3 |
| 20260509224503 | 53 | 0 | 0.0 | 0.0 | 0.15 | 0.68 | 0.68 | 91 | 1007.3 |
| 20260509223604 | 54 | 0 | 0.0 | 0.0 | 0.17 | 0.67 | 0.67 | 91 | 1007.3 |
| 20260509222704 | 54 | 0 | 0.0 | 0.0 | 0.21 | 0.65 | 0.65 | 90 | 1007.6 |
| 20260509221803 | 54 | 0 | 0.0 | 0.0 | 0.20 | 0.62 | 0.62 | 90 | 1007.6 |
| 20260509220903 | 54 | 0 | 0.0 | 0.0 | 0.19 | 0.60 | 0.60 | 90 | 1007.6 |
| 20260509220004 | 54 | 0 | 0.0 | 0.0 | 0.17 | 0.57 | 0.57 | 90 | 1007.6 |
| 20260509215403 | 54 | 0 | 0.0 | 0.0 | 0.15 | 0.55 | 0.55 | 90 | 1007.6 |
| 20260509214504 | 54 | 182 | 0.0 | 1.0 | 0.13 | 0.53 | 0.53 | 90 | 1008.3 |
| 20260509213603 | 54 | 0 | 0.0 | 0.0 | 0.11 | 0.50 | 0.50 | 90 | 1008.0 |
| 20260509212703 | 54 | 0 | 0.0 | 0.0 | 0.06 | 0.44 | 0.44 | 90 | 1008.0 |
| 20260509211803 | 54 | 0 | 0.0 | 0.0 | 0.05 | 0.42 | 0.42 | 90 | 1008.0 |
| 20260509210903 | 54 | 0 | 0.0 | 0.0 | 0.05 | 0.41 | 0.41 | 89 | 1007.6 |
| 20260509210004 | 54 | 0 | 0.0 | 0.0 | 0.05 | 0.40 | 0.40 | 89 | 1007.6 |
| 20260509205403 | 54 | 0 | 0.0 | 0.0 | 0.07 | 0.40 | 0.40 | 89 | 1007.6 |